User: anonymous   Login
Location: La Tine
(46.4708°N, 7.0525°E)
Time: 02:16:46
(UTC+00:00)
Language:

KORONAS-FOTON - Orbit

View from above orbital plane
View from above orbital plane
View from above satellite
View from above satellite

Ground track
Ground track

The orbit data is extracted from the following two-line orbital elements,

1 33504U 09003A   20335.33821926 +.00000724 +00000-0 +36038-4 0  9991
2 33504 082.4438 057.7547 0020451 067.3066 293.0325 15.15785194652510
Epoch (UTC): 30 November 2020 08:07:02
Eccentricity: 0.0020451
inclination: 82.4438°
perigee height: 504 km
apogee height: 533 km
right ascension of ascending node: 57.7547°
argument of perigee: 67.3066°
revolutions per day: 15.15785194
mean anomaly at epoch: 293.0325°
orbit number at epoch: 65251

The dashed part of the orbit path shows where the satellite is in the earth's shadow,  

DLR